This is the latest recevied weather packets stored in our database for station/object W9LRT-WX. If no packets are shown the sender has not sent any weather packets the latest 10 day(s).
| Time | Temp. | Humidity | Pressure | Rain* | Wind** | Luminosity | Snow |
|---|---|---|---|---|---|---|---|
| 1777749584 | 10° C | 40% | 1017 hPa | 0 mm | - | 902 W/m² | - |
| 1777748678 | 11.67° C | 40% | 1017.3 hPa | 0 mm | - | 874 W/m² | - |
| 1777747776 | 10.56° C | 46% | 1017.3 hPa | 0 mm | - | 904 W/m² | - |
| 1777746877 | 10° C | 42% | 1017.4 hPa | 0 mm | - | 935 W/m² | - |
| 1777745975 | 10° C | 44% | 1017.5 hPa | 0 mm | - | 970 W/m² | - |
| 1777745074 | 9.44° C | 42% | 1017.6 hPa | 0 mm | - | 274 W/m² | - |
| 1777744175 | 9.44° C | 47% | 1017.8 hPa | 0 mm | - | 213 W/m² | - |
| 1777743275 | 9.44° C | 43% | 1017.9 hPa | 0 mm | - | 1095 W/m² | - |
| 1777742372 | 9.44° C | 42% | 1017.9 hPa | 0 mm | - | 1076 W/m² | - |
| 1777741472 | 8.89° C | 46% | 1018 hPa | 0 mm | - | 1153 W/m² | - |
| 1777740572 | 7.78° C | 52% | 1018.1 hPa | 0 mm | - | 304 W/m² | - |
| 1777739672 | 8.33° C | 49% | 1018.2 hPa | 0 mm | - | 965 W/m² | - |
| 1777738773 | 7.78° C | 54% | 1018.3 hPa | 0 mm | - | 1086 W/m² | - |
| 1777737872 | 7.78° C | 54% | 1018.5 hPa | 0 mm | - | 230 W/m² | - |
| 1777736976 | 7.22° C | 56% | 1018.4 hPa | 0 mm | - | 951 W/m² | - |
| 1777736071 | 7.78° C | 59% | 1018.4 hPa | 0 mm | - | 329 W/m² | - |
| 1777735170 | 7.22° C | 55% | 1018.5 hPa | 0 mm | - | 954 W/m² | - |
| 1777734271 | 6.67° C | 57% | 1018.5 hPa | 0 mm | - | 244 W/m² | - |
| 1777733371 | 6.67° C | 61% | 1018.3 hPa | 0 mm | - | 833 W/m² | - |
| 1777732471 | 6.11° C | 62% | 1018.3 hPa | 0 mm | - | 738 W/m² | - |
| 1777731570 | 6.11° C | 65% | 1018.3 hPa | 0 mm | - | 682 W/m² | - |
| 1777730671 | 5.56° C | 65% | 1018.3 hPa | 0 mm | - | 339 W/m² | - |
| 1777729770 | 5.56° C | 67% | 1018.2 hPa | 0 mm | - | 517 W/m² | - |
| 1777728871 | 5.56° C | 71% | 1018 hPa | 0 mm | - | 445 W/m² | - |
| 1777727970 | 5° C | 73% | 1018 hPa | 0 mm | - | 392 W/m² | - |
* Rain latest hour (hover to see other rain measurements)
** Current wind speed in m/s (hover to see current wind gust speed)